Regional Weather Roundup
Issued by NWS

Home | Current Version | Previous Version | Graphics & Text | Print | Product List | Glossary On
Versions: 1 2 3 4 5 6 7 8 9 10 11 12 13 14 15 16 17 18 19 20 21 22 23 24 25 26 27 28 29 30 31 32 33 34 35 36 37 38 39 40 41 42 43 44 45 46 47 48 49 50
000
ASUS43 KLOT 281604
RWRIL

ILLINOIS REGIONAL WEATHER ROUNDUP
NATIONAL WEATHER SERVICE CHICAGO/ROMEOVILLE IL
1100 AM CDT WED SEP 28 2016

NOTE: "FAIR" INDICATES FEW OR NO CLOUDS BELOW 12,000 FEET WITH NO
SIGNIFICANT WEATHER AND/OR OBSTRUCTIONS TO VISIBILITY.

* THESE STATIONS ARE NOT UNDER NWS QUALITY CONTROL. THEY ALSO MAY NOT
  REPORT WEATHER SUCH AS PRECIPITATION OR FOG.

ILZ001-002-007-009-015-016-024-281700-
NORTHWEST ILLINOIS

CITY           SKY/WX    TMP DP  RH WIND       PRES   REMARKS
MOLINE         CLOUDY    57  46  66 NW12G20   29.98R
STERLING*      LGT RAIN  56  49  77 N7        29.97R
$$

ILZ003-004-008-010-011-017-018-281700-
NORTH CENTRAL ILLINOIS

CITY           SKY/WX    TMP DP  RH WIND       PRES   REMARKS
ROCKFORD       CLOUDY    56  48  74 N10       29.96R
FREEPORT*      CLOUDY    54  48  81 N12G21    29.97R
ROCHELLE*      CLOUDY    54  48  81 N10       29.94R
$$

ILZ005-006-012>014-019>023-281700-
NORTHEAST ILLINOIS

CITY           SKY/WX    TMP DP  RH WIND       PRES   REMARKS
CHICAGO-OHARE  PTSUNNY   59  45  59 NE14      29.89R
CHICAGO-MIDWAY CLOUDY    58  46  64 N12       29.89R
AURORA         CLOUDY    55  51  86 N14       29.91R
LANSING*       RAIN      55  51  89 N8        29.89R
JOLIET*        CLOUDY    58  49  69 N10       29.90R
WAUKEGAN       PTSUNNY   57  47  69 N8G20     29.90R
DUPAGE AIRPORT CLOUDY    57  47  69 N15       29.90R
KANKAKEE*      PTSUNNY   58  45  63 N10       29.89R
WHEELING       CLOUDY    57  46  66 N10       29.91R
MORRIS*        CLOUDY    57  46  67 N5        29.90S
ROMEOVILLE*    CLOUDY    55  50  82 N9G16     29.89S
NORTHERLY ISL    N/A     53  49  86 N14         N/A
$$

LMZ740>746-281700-
SOUTHERN LAKE MICHIGAN

STATION/POSITION SKY/WX   TEMP    WIND        PRES    VSBY  WAVE
                          AIR SEA DIR/SP/G                  HT/PER
                          (F)     (DEG/KT/KT) (MB)    (MI)  (FT/S)
SOUTHERN BUOY              58 69   70/ 10/ 12 1011.4          1
WILMETTE HARBOR            54 59   20/ 17/ 21   N/A           4/ 4
HARRISON CRIB              54     350/ 19/ 22   N/A
BURNHAM HARBOR             53     350/ 12/ 16   N/A
CALUMET HARBOR             53     330/  9/ 14 1011.5R
BURNS HARBOR               59      40/ 20/ 23 1011.2R
MICHIGAN CITY              57      20/ 21/ 24   N/A
MICHIGAN CITY 6N           59 66   40/ 17/ 25   N/A           5/ 4
ST. JOSEPH                 57 66   30/ 12/ 17 1011.4R         3/ 4
$$

ILZ025>027-034>036-040-047-049-050-058-095>099-281700-
WEST-CENTRAL ILLINOIS

CITY           SKY/WX    TMP DP  RH WIND       PRES   REMARKS
QUINCY         MOSUNNY   58  45  62 N14G29    29.99R
MACOMB*        CLOUDY    54  46  73 N15G22    30.01R
JACKSONVILLE*  MOSUNNY   58  44  58 N20       29.95R
PITTSFIELD*    MOSUNNY   60  46  59 NW15G21   29.98R
$$

ILZ028>032-037-038-041>044-048-051>054-059>061-281700-
CENTRAL ILLINOIS

CITY           SKY/WX    TMP DP  RH WIND       PRES   REMARKS
PONTIAC        CLOUDY    56  48  75 N14G22    29.92R
BLOOMINGTON    CLOUDY    54  45  71 N20       29.92R
DECATUR        PTSUNNY   59  45  59 N17G25    29.91R
PEORIA         CLOUDY    55  46  71 N13G20    29.95R
LACON*         CLOUDY    55  44  67 N14       29.94R
LINCOLN*       CLOUDY    57  46  67 N12G17    29.93R
SPRINGFIELD    MOSUNNY   61  45  55 NW15G24   29.94R
TAYLORVILLE    MOSUNNY   60  44  56 NW17G25   29.92R
$$

ILZ033-039-045-046-055>057-062-063-281700-
EAST-CENTRAL ILLINOIS

CITY           SKY/WX    TMP DP  RH WIND       PRES   REMARKS
CHAMPAIGN      PTSUNNY   58  46  64 N17G23    29.88R
RANTOUL*       PTSUNNY   60  48  63 N16G22    29.88R
MATTOON        CLOUDY    60  45  57 N16G28    29.86R
PARIS*         CLOUDY    61  52  71 N6        29.86R
$$

ILZ079-100>102-281700-
SOUTHWEST ILLINOIS

CITY           SKY/WX    TMP DP  RH WIND       PRES   REMARKS
BELLEVILLE     SUNNY     65  47  52 N10G23    29.90R
CAHOKIA*       SUNNY     66  46  48 N14       29.92R
SPARTA*        MOSUNNY   65  49  56 NW14      29.90R
$$

ILZ064>066-069>071-074>076-080>082-084>086-088>090-092>094-281700-
SOUTH-CENTRAL ILLINOIS

CITY           SKY/WX    TMP DP  RH WIND       PRES   REMARKS
CARBONDALE     CLOUDY    67  56  67 NW12G18   29.87R
EFFINGHAM*     CLOUDY    61  48  62 N13G23    29.89R
MARION         PTSUNNY   66  55  68 NW15      29.87R
MT. VERNON     CLOUDY    63  48  59 N5        29.87R
CENTRALIA*     MOSUNNY   65  49  56 NW18      29.87R
SALEM*         MOSUNNY   66  47  51 N15G24    29.88R
METROPOLIS*    PTSUNNY   70  55  58 W7        29.86S
$$

ILZ067-068-072-073-078-083-087-091-281700-
SOUTHEAST ILLINOIS

CITY           SKY/WX    TMP DP  RH WIND       PRES   REMARKS
LAWRENCEVILLE  CLOUDY    62  55  77 NW12      29.82R
FLORA*         CLOUDY    69  52  55 N13G18    29.86R
FAIRFIELD*     PTSUNNY   62  54  76 N6        29.84R
HARRISBURG*    LGT RAIN  65  56  73 NW12      29.86R
ROBINSON*      CLOUDY    63  55  76 N10       29.83R
CARMI*         LGT RAIN  60  58  91 W8        29.84R
$$

ABBREVIATIONS USED IN REMARKS
   TC - TEMPERATURE IN CELSIUS
  WCI - WIND CHILL INDEX
   HX - HEAT INDEX
  VSB - VISIBILITY
$$




USA.gov is the U.S. government's official web portal to all federal, state and local government web resources and services.